{"data":{"norad_id":62184,"intl_designator":"2024-225X","name":"STARLINK-32581","alt_names":[],"object_type":"PAYLOAD","status":"ACTIVE","operator":null,"country":"US","launch_date":"2024-11-30","launch_site_code":"AFWTR","launch_vehicle":null,"mission":null,"orbit_class":"UNKNOWN","rcs_meters":null,"size_class":null,"mass_kg":null,"dimensions":null,"purposes":["comms"],"wikipedia_slug":null,"has_3d_model":false,"image_url":null,"decayed_at":null,"tle_current":{"epoch":"2026-09-21T17:58:29.118432Z","epoch_age_seconds":70316,"freshness":"FRESH","line1":"1 62184U 24225X   26264.74894813  .00010873  00000+0  38209-3 0  9993","line2":"2 62184  70.0014  17.6867 0003498 273.6947  86.3828 15.29582022 99551","mean_motion":15.29582022,"eccentricity":0.0003498,"inclination_deg":70.0014,"raan_deg":17.6867,"arg_perigee_deg":273.6947,"mean_anomaly_deg":86.3828,"bstar":0.00038209,"rev_number":9955,"period_min":94.143365918824,"perigee_km":474.66291333074,"apogee_km":479.45880975468,"semimajor_km":6855.1978615427,"source":"CELESTRAK","updated_at":"2026-09-22T09:00:49.538507Z"}}}